Powrót do katalogu

FENGYUN 1C DEB

LostPO
NORAD 38820·DEBRIS·🇨🇳 China

Wystrzelony May 10, 1999 z Taiyuan Satellite Launch Center

Loading…

Następne Przeloty (najbliższe 24 godziny)

TLE

NieaktualneSource: Space-Track

Epoka: Sep 4, 2022, 06:32 UTC

1 38820U 99025EVL 22247.27268701  .00001726  00000-0  12398-2 0  9997
2 38820  98.2330 249.9745 0278772 149.1454 281.8774 13.81066790506345

Śledź FENGYUN 1C DEB w czasie rzeczywistym z AllMySat

Download on the App Store